TimeCST,TemperatureF,Dew PointF,Humidity,Sea Level PressureIn,VisibilityMPH,Wind Direction,Wind SpeedMPH,Gust SpeedMPH,PrecipitationIn,Events,Conditions,WindDirDegrees,DateUTC
12:53 AM,51.1,43.0,74,30.15,10.0,South,3.5,-,N/A,,Overcast,180,2012-11-20 06:53:00
1:53 AM,53.1,44.1,71,30.15,10.0,Calm,Calm,-,N/A,,Overcast,0,2012-11-20 07:53:00
2:53 AM,52.0,44.1,74,30.15,10.0,Calm,Calm,-,N/A,,Overcast,0,2012-11-20 08:53:00
3:53 AM,48.9,44.1,83,30.14,10.0,Calm,Calm,-,N/A,,Scattered Clouds,0,2012-11-20 09:53:00
4:53 AM,45.0,41.0,86,30.14,10.0,Calm,Calm,-,N/A,,Scattered Clouds,0,2012-11-20 10:53:00
5:53 AM,45.0,42.1,90,30.13,10.0,South,3.5,-,N/A,,Clear,190,2012-11-20 11:53:00
6:53 AM,46.9,42.1,83,30.15,10.0,WSW,3.5,-,N/A,,Clear,240,2012-11-20 12:53:00
7:53 AM,48.9,44.1,83,30.15,10.0,Calm,Calm,-,N/A,,Clear,0,2012-11-20 13:53:00
8:53 AM,54.0,44.1,69,30.16,10.0,SW,6.9,-,N/A,,Clear,220,2012-11-20 14:53:00
9:53 AM,59.0,45.0,60,30.14,10.0,WSW,5.8,-,N/A,,Clear,240,2012-11-20 15:53:00
10:53 AM,63.0,46.0,54,30.12,10.0,West,4.6,-,N/A,,Clear,260,2012-11-20 16:53:00
11:53 AM,66.9,46.9,49,30.08,10.0,SW,8.1,-,N/A,,Clear,220,2012-11-20 17:53:00
12:53 PM,69.1,48.0,47,30.06,10.0,SW,5.8,-,N/A,,Clear,220,2012-11-20 18:53:00
1:53 PM,71.1,45.0,39,30.04,10.0,WSW,5.8,-,N/A,,Clear,240,2012-11-20 19:53:00
2:53 PM,73.0,43.0,34,30.04,4.0,West,5.8,-,N/A,,Haze,280,2012-11-20 20:53:00
3:53 PM,72.0,41.0,33,30.05,10.0,NW,9.2,-,N/A,,Clear,310,2012-11-20 21:53:00
4:53 PM,66.0,42.1,42,30.06,10.0,NW,4.6,-,N/A,,Clear,310,2012-11-20 22:53:00
5:53 PM,61.0,42.1,50,30.09,10.0,NW,6.9,-,N/A,,Clear,320,2012-11-20 23:53:00
6:53 PM,59.0,44.1,58,30.12,10.0,North,8.1,-,N/A,,Clear,360,2012-11-21 00:53:00
7:53 PM,57.9,44.1,60,30.14,10.0,North,9.2,-,N/A,,Clear,360,2012-11-21 01:53:00
8:53 PM,55.0,42.1,62,30.15,10.0,North,4.6,-,N/A,,Clear,360,2012-11-21 02:53:00
9:53 PM,50.0,42.1,74,30.16,10.0,North,5.8,-,N/A,,Clear,10,2012-11-21 03:53:00
10:53 PM,51.1,42.1,71,30.17,10.0,NNW,4.6,-,N/A,,Clear,340,2012-11-21 04:53:00
11:53 PM,51.1,43.0,74,30.18,10.0,Calm,Calm,-,N/A,,Clear,0,2012-11-21 05:53:00